Location: ???? ???? ?????
(31.2680°N, 31.7283°E)
Time: 18:46:42
(UTC+00:00)

USA 81 - Pass Details

Date: 13 July 2020
Orbit: 786 x 788 km, 85.0° (Epoch: 17 July)

Event Time Altitude Azimuth Distance (km) Brightness Sun altitude
Exits shadow 18:50:57 18° 193° (SSW) 1,822 5.7 -20.5°
Maximum altitude 18:54:48 69° 274° (W) 839 4.3 -21.1°
Drops below altitude 10° 19:00:04 10° 358° (N) 2,349 7.1 -21.9°
Sets 19:02:27 0° 0° (N) 3,280 7.9 -22.2°
